(413276) = 2003 UV57 = 2014 SL253

Discovered at Kitt Peak on 2003-10-02 by Spacewatch.

Orbit

Orbit type: Main Belt

Note: WebGL enabled browser required.

epoch2023-02-25.0
epoch JD2460000.5
perihelion date2020-07-31.81120
perihelion JD2459062.31120
argument of perihelion (°)52.47743
ascending node (°)340.82451
inclination (°)10.07246
eccentricity0.1473697
perihelion distance (AU)2.6711897
Tisserand w.r.t. Jupiter3.2
ΔV w.r.t. Earth (km/sec)10.7
semimajor axis (AU)3.1328815
mean anomaly (°)166.75472
mean daily motion (°/day)0.17774110
aphelion distance (AU)3.595
period (years)5.55
P-vector [x]0.83177365
P-vector [y]0.43797569
P-vector [z]0.34107167
Q-vector [x]-0.55213454
Q-vector [y]0.71631381
Q-vector [z]0.42666378
absolute magnitude16.26
phase slope0.15
uncertainty0
referenceMPO 745323
observations used208
oppositions10
arc length (days)8470
first opposition used2000
last opposition used2023
residual rms (arc-secs)0.73
perturbers coarse indicatorM-v
perturbers precise indicator003Ek
first observation date used2000-03-04.0
last observation date used2023-05-13.0
computer nameMPCLINUX
Minimum Orbit Intersection Distances (in AU)
for orbit epoch: 2460000.5, reference: E2023-JE0
Mercury2.34784
Venus1.96276
Earth1.68895
Mars1.25389
Jupiter1.96412
Saturn6.00617
Uranus14.9692
Neptune27.1432

Observations

212 total observations over interval: 2000 03 04.36139 – 2023 05 13.344285
These data are available for download (format description).

Date (UT) J2000 RA J2000 Dec Magn Location Ref
2000 03 04.36139 10 49 12.10 +07 33 35.8 21.4 V 691 – Steward Observatory, Kitt Peak-Spacewatch MPS 536589
2000 03 04.38229 10 49 11.01 +07 33 38.4 20.9 V 691 – Steward Observatory, Kitt Peak-Spacewatch MPS 536589
2000 03 04.40304 10 49 09.96 +07 33 41.3 21.5 V 691 – Steward Observatory, Kitt Peak-Spacewatch MPS 536589
2003 10 02.34890 01 07 54.28 +17 19 20.7 20.2 V 691 – Steward Observatory, Kitt Peak-Spacewatch MPS 312320
2003 10 02.37492 01 07 52.89 +17 19 19.8 20.4 V 691 – Steward Observatory, Kitt Peak-Spacewatch MPS 312320
2003 10 02.40143 01 07 51.49 +17 19 18.9 20.3 V 691 – Steward Observatory, Kitt Peak-Spacewatch MPS 312320
2003 10 16.19161 00 55 45.38 +17 00 11.9 20.1 V 691 – Steward Observatory, Kitt Peak-Spacewatch MPS 89649
2003 10 16.22045 00 55 43.84 +17 00 08.0 20.1 V 691 – Steward Observatory, Kitt Peak-Spacewatch MPS 89649
2003 10 16.24782 00 55 42.35 +17 00 04.5 20.1 V 691 – Steward Observatory, Kitt Peak-Spacewatch MPS 89649
2003 10 17.25874 00 54 49.62 +16 57 48.8 19.0 R 699 – Lowell Observatory-LONEOS MPS 89649
2003 10 17.27355 00 54 48.78 +16 57 47.1   699 – Lowell Observatory-LONEOS MPS 89649
2003 10 17.28839 00 54 48.08 +16 57 45.2   699 – Lowell Observatory-LONEOS MPS 89649
2003 10 17.30332 00 54 47.21 +16 57 42.6   699 – Lowell Observatory-LONEOS MPS 89649
2011 02 25.29185 10 33 34.63 +10 29 52.5 20.6 V G96 – Mt. Lemmon Survey MPS 536589
2011 02 25.30226 10 33 34.05 +10 29 54.2 20.7 V G96 – Mt. Lemmon Survey MPS 536589
2011 02 25.31275 10 33 33.51 +10 29 55.6 20.7 V G96 – Mt. Lemmon Survey MPS 536589
2011 02 25.32325 10 33 32.97 +10 29 57.4 20.9 V G96 – Mt. Lemmon Survey MPS 536589
2011 03 08.22723 10 24 34.52 +10 54 55.0 20.7 V G96 – Mt. Lemmon Survey MPS 536589
2011 03 08.23484 10 24 34.12 +10 54 56.3 21.0 V G96 – Mt. Lemmon Survey MPS 536589
2011 03 08.24245 10 24 33.76 +10 54 58.1 21.1 V G96 – Mt. Lemmon Survey MPS 536589
2011 03 08.25005 10 24 33.40 +10 54 58.3 20.8 V G96 – Mt. Lemmon Survey MPS 536589
2014 07 30.57325 00 49 43.084 +08 32 24.47 21.0 w F51 – Pan-STARRS 1, Haleakala MPS 536589
2014 07 30.58567 00 49 43.271 +08 32 28.94 20.9 w F51 – Pan-STARRS 1, Haleakala MPS 536589
2014 07 30.59816 00 49 43.452 +08 32 33.55 20.9 w F51 – Pan-STARRS 1, Haleakala MPS 536589
2014 07 30.61072 00 49 43.646 +08 32 38.01 21.0 w F51 – Pan-STARRS 1, Haleakala MPS 536589
2014 09 02.54587 00 46 03.436 +10 53 59.10 20.1 w F51 – Pan-STARRS 1, Haleakala MPS 536590
2014 09 02.55814 00 46 03.041 +10 54 00.52 20.1 w F51 – Pan-STARRS 1, Haleakala MPS 536590
2014 09 02.57043 00 46 02.643 +10 54 02.04 20.1 w F51 – Pan-STARRS 1, Haleakala MPS 536590
2014 09 14.39889 00 38 38.923 +11 07 59.10 19.7 i F51 – Pan-STARRS 1, Haleakala MPS 536590
2014 09 14.42262 00 38 37.845 +11 07 59.73 19.7 i F51 – Pan-STARRS 1, Haleakala MPS 536590
2014 09 14.43459 00 38 37.291 +11 08 00.10 19.7 i F51 – Pan-STARRS 1, Haleakala MPS 536590
2014 09 23.32871 00 31 34.47 +11 05 50.7 19.6 V G96 – Mt. Lemmon Survey MPS 533847
2014 09 23.33479 00 31 34.14 +11 05 50.4 19.6 V G96 – Mt. Lemmon Survey MPS 533847
2014 09 23.34086 00 31 33.83 +11 05 50.0 19.5 V G96 – Mt. Lemmon Survey MPS 533847
2014 09 23.34694 00 31 33.50 +11 05 49.7 19.8 V G96 – Mt. Lemmon Survey MPS 533847
2014 09 24.12713 00 30 53.93 +11 05 10.7 19.2 R J04 – ESA Optical Ground Station, Tenerife MPS 536590
2014 09 24.13882 00 30 53.36 +11 05 09.0 19.6 R J04 – ESA Optical Ground Station, Tenerife MPS 536590
2014 09 24.15051 00 30 52.70 +11 05 08.7 19.7 R J04 – ESA Optical Ground Station, Tenerife MPS 536590
2014 09 24.16202 00 30 52.51 +11 05 07.3 19.8 V 691 – Steward Observatory, Kitt Peak-Spacewatch MPS 533847
2014 09 24.16220 00 30 52.13 +11 05 08.4 19.9 R J04 – ESA Optical Ground Station, Tenerife MPS 536590
2014 09 24.18239 00 30 51.50 +11 05 06.0 19.9 V 691 – Steward Observatory, Kitt Peak-Spacewatch MPS 533847
2014 09 24.20278 00 30 50.42 +11 05 05.4 20.1 V 691 – Steward Observatory, Kitt Peak-Spacewatch MPS 533847
2014 09 25.31787 00 29 53.38 +11 04 01.7 19.7 V 703 – Catalina Sky Survey MPS 536590
2014 09 25.34838 00 29 51.74 +11 03 59.8 19.0 V 703 – Catalina Sky Survey MPS 536590
2014 09 25.36362 00 29 50.90 +11 03 57.9 19.2 V 703 – Catalina Sky Survey MPS 536590
2014 10 01.31394 00 24 42.04 +10 55 56.4 19.7 V 703 – Catalina Sky Survey MPS 536590
2014 10 01.32249 00 24 41.59 +10 55 55.8 19.5 V 703 – Catalina Sky Survey MPS 536590
2014 10 01.33395 00 24 40.95 +10 55 54.8 19.7 V 703 – Catalina Sky Survey MPS 536590
2014 10 01.34251 00 24 40.46 +10 55 54.0 19.2 V 703 – Catalina Sky Survey MPS 536590
2014 10 12.15441 00 15 30.59 +10 34 12.9 20.0 V 691 – Steward Observatory, Kitt Peak-Spacewatch MPS 538882
2014 10 12.21384 00 15 27.61 +10 34 04.8 20.2 V 691 – Steward Observatory, Kitt Peak-Spacewatch MPS 538882
2014 10 12.27328 00 15 24.60 +10 33 56.6 20.1 V 691 – Steward Observatory, Kitt Peak-Spacewatch MPS 538882
2014 10 12.29918 00 15 23.29 +10 33 54.0 18.9 V 703 – Catalina Sky Survey MPS 538882
2014 10 12.31065 00 15 22.77 +10 33 51.8 20.3 V 703 – Catalina Sky Survey MPS 538882
2014 10 12.32208 00 15 22.19 +10 33 49.7 19.1 V 703 – Catalina Sky Survey MPS 538882
2014 10 14.21820 00 13 52.02 +10 29 26.8 20.2 g I41 – Palomar Mountain--ZTF MPS 538882
2014 10 14.24579 00 13 50.68 +10 29 23.0 20.2 g I41 – Palomar Mountain--ZTF MPS 538882
2014 10 14.25383 00 13 50.28 +10 29 22.2 20.1 g I41 – Palomar Mountain--ZTF MPS 538882
2014 10 18.20084 00 10 51.57 +10 20 01.6 19.8 V 703 – Catalina Sky Survey MPS 540471
2014 10 18.21311 00 10 51.03 +10 20 01.6 20.6 V 703 – Catalina Sky Survey MPS 540471
2014 10 18.22537 00 10 50.44 +10 19 59.7 20.3 V 703 – Catalina Sky Survey MPS 540471
2014 10 21.09124 00 08 50.36 +10 13 12.6 20.3 V 691 – Steward Observatory, Kitt Peak-Spacewatch MPS 540471
2014 10 21.10974 00 08 49.60 +10 13 10.2 20.3 V 691 – Steward Observatory, Kitt Peak-Spacewatch MPS 540471
2014 10 21.13702 00 08 48.45 +10 13 06.4 20.1 V 691 – Steward Observatory, Kitt Peak-Spacewatch MPS 540471
2014 10 24.19298 00 06 50.15 +10 06 02.8 19.9 r G45 – Space Surveillance Telescope, Atom Site MPS 558630
2014 10 24.21090 00 06 49.46 +10 06 00.9 20.2 r G45 – Space Surveillance Telescope, Atom Site MPS 558630
2014 10 24.22198 00 06 49.09 +10 05 58.9 19.8 r G45 – Space Surveillance Telescope, Atom Site MPS 558630
2014 10 24.23304 00 06 48.64 +10 05 57.4 20.0 r G45 – Space Surveillance Telescope, Atom Site MPS 558630
2014 10 25.19409 00 06 13.95 +10 03 48.3 20.3 r G45 – Space Surveillance Telescope, Atom Site MPS 558630
2014 10 25.21118 00 06 13.29 +10 03 45.9 19.9 r G45 – Space Surveillance Telescope, Atom Site MPS 558630
2014 10 25.22240 00 06 12.85 +10 03 44.2 19.9 r G45 – Space Surveillance Telescope, Atom Site MPS 558630
2014 10 25.22382 00 06 12.81 +10 03 43.5 20.4 r G45 – Space Surveillance Telescope, Atom Site MPS 558630
2014 10 25.23406 00 06 12.44 +10 03 42.9 19.9 r G45 – Space Surveillance Telescope, Atom Site MPS 558630
2014 10 25.24531 00 06 12.01 +10 03 41.2 20.6 r G45 – Space Surveillance Telescope, Atom Site MPS 558630
2014 10 25.24679 00 06 11.98 +10 03 40.8 20.2 r G45 – Space Surveillance Telescope, Atom Site MPS 558630
2014 10 25.25724 00 06 11.59 +10 03 39.5 20.3 r G45 – Space Surveillance Telescope, Atom Site MPS 558630
2014 10 25.26835 00 06 11.15 +10 03 38.1 20.2 r G45 – Space Surveillance Telescope, Atom Site MPS 558630
2014 10 25.27944 00 06 10.72 +10 03 36.5 20.4 r G45 – Space Surveillance Telescope, Atom Site MPS 558630
2014 10 25.29056 00 06 10.38 +10 03 34.9 20.5 r G45 – Space Surveillance Telescope, Atom Site MPS 558630
2014 10 25.30622 00 06 09.78 +10 03 32.9 20.2 r G45 – Space Surveillance Telescope, Atom Site MPS 558630
2014 10 25.30703 00 06 09.76 +10 03 33.0 20.3 r G45 – Space Surveillance Telescope, Atom Site MPS 558630
2014 10 26.21054 00 05 38.41 +10 01 33.7 20.2 r G45 – Space Surveillance Telescope, Atom Site MPS 558630
2014 10 26.21196 00 05 38.34 +10 01 33.2 20.1 r G45 – Space Surveillance Telescope, Atom Site MPS 558630
2014 10 26.22184 00 05 37.97 +10 01 32.3 20.2 r G45 – Space Surveillance Telescope, Atom Site MPS 558630
2014 10 26.23306 00 05 37.62 +10 01 30.9 19.8 r G45 – Space Surveillance Telescope, Atom Site MPS 558630
2014 10 26.23451 00 05 37.53 +10 01 30.8 19.4 r G45 – Space Surveillance Telescope, Atom Site MPS 558630
2014 10 26.24439 00 05 37.23 +10 01 29.4 20.0 r G45 – Space Surveillance Telescope, Atom Site MPS 558630
2014 10 26.24583 00 05 37.09 +10 01 29.2 20.0 r G45 – Space Surveillance Telescope, Atom Site MPS 558630
